• In United Kingdom
  • List of Countries
  • For 7 days
  • Water Temperature
  • Satellite Maps
  • Weather Map
  • Weather Widgets
  • user-avatar
    Login

    Hourly Weather Granada

    Today, 21 October, Sunday

    Time Temperature Precipitation Wind Pressure Humidity
    00:00 +15°C° 0.1 mm 2 mps 702 mmHg 81%
    01:00 +15°C° 0.1 mm 2 mps 702 mmHg 82%
    02:00 +15°C° 0.1 mm 2 mps 701 mmHg 82%
    03:00 +15°C° 0.1 mm 2 mps 701 mmHg 83%
    04:00 +15°C° 0.1 mm 2 mps 701 mmHg 83%
    05:00 +15°C° 0.1 mm 2 mps 702 mmHg 84%
    06:00 +15°C° 0.1 mm 2 mps 702 mmHg 84%
    07:00 +16°C° 0.1 mm 2 mps 702 mmHg 78%
    08:00 +18°C° 0.1 mm 2 mps 703 mmHg 72%
    09:00 +19°C° 0.1 mm 2 mps 703 mmHg 65%
    10:00 +20°C° 0.2 mm 2 mps 704 mmHg 60%
    11:00 +23°C° 0.2 mm 2 mps 704 mmHg 54%
    12:00 +24°C° 0.2 mm 2 mps 704 mmHg 49%
    13:00 +24°C° 0.1 mm 2 mps 704 mmHg 48%
    14:00 +24°C° 0.1 mm 2 mps 703 mmHg 48%
    15:00 +24°C° 0.1 mm 2 mps 703 mmHg 47%
    16:00 +23°C° 0.1 mm 2 mps 703 mmHg 54%
    17:00 +20°C° 0.1 mm 2 mps 703 mmHg 60%
    18:00 +20°C° 0.1 mm 1 mps 703 mmHg 67%
    19:00 +19°C° 0.1 mm 1 mps 703 mmHg 69%
    20:00 +19°C° 0.1 mm 1 mps 703 mmHg 72%
    21:00 +16°C° 0.1 mm 0 mps 704 mmHg 75%
    22:00 +16°C° 0 mm 0 mps 704 mmHg 76%
    23:00 +16°C° 0 mm 0 mps 704 mmHg 78%

    Tomorrow, 22 October, Monday

    Time Temperature Precipitation Wind Pressure Humidity
    00:00 +15°C° 0 mm 0 mps 704 mmHg 79%
    01:00 +15°C° 0 mm 0 mps 704 mmHg 80%
    02:00 +15°C° 0 mm 0 mps 703 mmHg 81%
    03:00 +14°C° 0 mm 0 mps 703 mmHg 82%
    04:00 +14°C° 0 mm 0 mps 703 mmHg 83%
    05:00 +14°C° 0 mm 0 mps 703 mmHg 83%
    06:00 +13°C° 0 mm 0 mps 703 mmHg 84%
    07:00 +15°C° 0 mm 0 mps 704 mmHg 77%
    08:00 +17°C° 0 mm 0 mps 704 mmHg 69%
    09:00 +18°C° 0 mm 0 mps 705 mmHg 62%
    10:00 +21°C° 0 mm 1 mps 705 mmHg 57%
    11:00 +22°C° 0 mm 1 mps 705 mmHg 52%
    12:00 +23°C° 0 mm 1 mps 705 mmHg 46%
    13:00 +24°C° 0.1 mm 1 mps 705 mmHg 46%
    14:00 +24°C° 0.1 mm 1 mps 705 mmHg 46%
    15:00 +24°C° 0.1 mm 1 mps 704 mmHg 45%
    16:00 +23°C° 0.2 mm 1 mps 704 mmHg 51%
    17:00 +21°C° 0.2 mm 1 mps 704 mmHg 57%
    18:00 +20°C° 0.2 mm 1 mps 704 mmHg 62%
    19:00 +19°C° 0.1 mm 1 mps 705 mmHg 66%
    20:00 +19°C° 0.1 mm 1 mps 705 mmHg 69%
    21:00 +18°C° 0.1 mm 1 mps 705 mmHg 72%
    22:00 +18°C° 0 mm 1 mps 705 mmHg 75%
    23:00 +18°C° 0 mm 1 mps 705 mmHg 78%

    Day after tomorrow, 23 October, Tuesday

    Time Temperature Precipitation Wind Pressure Humidity
    00:00 +16°C° 0 mm 1 mps 705 mmHg 81%
    01:00 +16°C° 0 mm 1 mps 705 mmHg 82%
    02:00 +16°C° 0 mm 1 mps 705 mmHg 83%
    03:00 +16°C° 0 mm 1 mps 705 mmHg 84%
    04:00 +16°C° 0 mm 1 mps 705 mmHg 85%
    05:00 +16°C° 0 mm 1 mps 705 mmHg 86%
    06:00 +16°C° 0 mm 1 mps 705 mmHg 86%
    07:00 +17°C° 0 mm 2 mps 706 mmHg 81%
    08:00 +17°C° 0 mm 2 mps 706 mmHg 75%
    09:00 +18°C° 0 mm 2 mps 707 mmHg 69%
    10:00 +19°C° 0 mm 2 mps 707 mmHg 64%
    11:00 +20°C° 0 mm 2 mps 707 mmHg 58%
    12:00 +21°C° 0 mm 2 mps 707 mmHg 53%
    13:00 +21°C° 0.2 mm 2 mps 707 mmHg 52%
    14:00 +21°C° 0.2 mm 2 mps 706 mmHg 52%
    15:00 +21°C° 0.2 mm 2 mps 706 mmHg 52%
    16:00 +20°C° 0.2 mm 2 mps 706 mmHg 57%
    17:00 +19°C° 0.2 mm 2 mps 706 mmHg 62%
    18:00 +18°C° 0.2 mm 2 mps 706 mmHg 68%
    19:00 +18°C° 0.2 mm 2 mps 706 mmHg 72%
    20:00 +17°C° 0.2 mm 2 mps 707 mmHg 76%
    21:00 +17°C° 0.2 mm 2 mps 707 mmHg 80%
    22:00 +16°C° 0 mm 2 mps 707 mmHg 82%
    23:00 +16°C° 0 mm 2 mps 707 mmHg 85%

    24 October, Wednesday

    Time Temperature Precipitation Wind Pressure Humidity
    00:00 +16°C° 0 mm 2 mps 707 mmHg 87%
    01:00 +15°C° 0 mm 2 mps 707 mmHg 88%
    02:00 +15°C° 0 mm 1 mps 706 mmHg 89%
    03:00 +15°C° 0 mm 1 mps 706 mmHg 90%
    04:00 +14°C° 0 mm 1 mps 706 mmHg 90%
    05:00 +14°C° 0 mm 1 mps 706 mmHg 90%
    06:00 +14°C° 0 mm 1 mps 706 mmHg 90%
    07:00 +15°C° 0 mm 1 mps 707 mmHg 83%
    08:00 +16°C° 0 mm 2 mps 707 mmHg 76%
    09:00 +18°C° 0 mm 2 mps 707 mmHg 69%
    10:00 +19°C° 0 mm 2 mps 707 mmHg 62%
    11:00 +20°C° 0 mm 2 mps 707 mmHg 56%
    12:00 +21°C° 0 mm 2 mps 707 mmHg 50%
    13:00 +21°C° 0 mm 2 mps 707 mmHg 50%
    14:00 +21°C° 0 mm 2 mps 706 mmHg 49%
    15:00 +21°C° 0 mm 2 mps 706 mmHg 48%
    16:00 +21°C° 0 mm 1 mps 706 mmHg 53%
    17:00 +20°C° 0 mm 1 mps 705 mmHg 58%
    18:00 +19°C° 0 mm 1 mps 705 mmHg 63%
    19:00 +18°C° 0 mm 1 mps 705 mmHg 65%
    20:00 +18°C° 0 mm 1 mps 705 mmHg 67%
    21:00 +16°C° 0 mm 1 mps 705 mmHg 69%
    22:00 +16°C° 0 mm 1 mps 705 mmHg 70%
    23:00 +16°C° 0 mm 1 mps 705 mmHg 72%

    25 October, Thursday

    Time Temperature Precipitation Wind Pressure Humidity
    00:00 +15°C° 0 mm 1 mps 705 mmHg 73%
    01:00 +15°C° 0 mm 1 mps 704 mmHg 74%
    02:00 +15°C° 0 mm 1 mps 704 mmHg 75%
    03:00 +14°C° 0 mm 1 mps 704 mmHg 76%
    04:00 +14°C° 0 mm 1 mps 704 mmHg 76%
    05:00 +14°C° 0 mm 1 mps 703 mmHg 77%
    06:00 +14°C° 0 mm 1 mps 703 mmHg 77%
    07:00 +15°C° 0 mm 1 mps 704 mmHg 71%
    08:00 +18°C° 0 mm 1 mps 704 mmHg 65%
    09:00 +20°C° 0 mm 1 mps 705 mmHg 59%
    10:00 +20°C° 0 mm 2 mps 704 mmHg 53%
    11:00 +21°C° 0 mm 2 mps 704 mmHg 48%
    12:00 +23°C° 0 mm 2 mps 704 mmHg 43%
    13:00 +23°C° 0 mm 2 mps 704 mmHg 42%
    14:00 +23°C° 0 mm 2 mps 703 mmHg 41%
    15:00 +24°C° 0 mm 2 mps 703 mmHg 40%
    16:00 +21°C° 0 mm 2 mps 703 mmHg 46%
    17:00 +21°C° 0 mm 1 mps 702 mmHg 52%
    18:00 +19°C° 0 mm 1 mps 702 mmHg 58%
    19:00 +18°C° 0 mm 1 mps 702 mmHg 60%
    20:00 +18°C° 0 mm 1 mps 702 mmHg 62%
    21:00 +16°C° 0 mm 1 mps 702 mmHg 64%
    22:00 +16°C° 0 mm 1 mps 702 mmHg 64%
    23:00 +16°C° 0 mm 1 mps 702 mmHg 64%

    26 October, Friday

    Time Temperature Precipitation Wind Pressure Humidity
    00:00 +16°C° 0 mm 1 mps 701 mmHg 64%
    01:00 +16°C° 0 mm 1 mps 701 mmHg 63%
    02:00 +16°C° 0 mm 1 mps 701 mmHg 61%
    03:00 +15°C° 0 mm 1 mps 700 mmHg 60%
    04:00 +15°C° 0 mm 1 mps 700 mmHg 57%
    05:00 +15°C° 0 mm 1 mps 700 mmHg 54%
    06:00 +16°C° 0 mm 1 mps 700 mmHg 52%
    07:00 +18°C° 0 mm 1 mps 700 mmHg 47%
    08:00 +19°C° 0 mm 1 mps 701 mmHg 43%
    09:00 +20°C° 0 mm 1 mps 701 mmHg 39%
    10:00 +20°C° 0.3 mm 1 mps 701 mmHg 42%
    11:00 +19°C° 0.3 mm 2 mps 701 mmHg 45%
    12:00 +19°C° 0.3 mm 2 mps 700 mmHg 48%
    13:00 +18°C° 0.6 mm 2 mps 700 mmHg 53%
    14:00 +17°C° 0.6 mm 2 mps 699 mmHg 59%
    15:00 +17°C° 0.6 mm 2 mps 699 mmHg 65%
    16:00 +16°C° 0.1 mm 2 mps 699 mmHg 68%
    17:00 +16°C° 0.1 mm 2 mps 699 mmHg 72%
    18:00 +15°C° 0.1 mm 1 mps 699 mmHg 75%
    19:00 +15°C° 0.1 mm 1 mps 699 mmHg 78%
    20:00 +14°C° 0.1 mm 1 mps 699 mmHg 80%
    21:00 +14°C° 0.1 mm 1 mps 699 mmHg 83%
    22:00 +14°C° 0.1 mm 1 mps 698 mmHg 83%
    23:00 +14°C° 0.1 mm 1 mps 698 mmHg 83%
    Show more